Simultaneous Nadir Overpasses (SNOs) Predictions

Prediction of SNOs between GOES-15 and METOP-B Satellite Orbit:

Table of predicted SNOs for the next 14.0 days since TLE Epoch: 3/2/2018
Index Date Time (GOES-15) GOES-15 Lat,Lon METOP-B Lat,Lon Distance(km) Time Diff (sec)
1 03/03/2018 06:37:41 -0.02,-135.34 -0.46,-137.21 212.89 80
2 03/04/2018 06:19:42 -0.03,-135.33 0.66,-132.22 354.81 80
3 03/05/2018 18:35:53 0.02,-135.31 0.38,-136.77 166.99 80
4 03/06/2018 18:17:54 0.03,-135.30 -0.75,-131.78 400.50 80
5 03/08/2018 06:34:14 -0.02,-135.27 -0.24,-136.39 126.99 80
6 03/09/2018 06:16:14 -0.02,-135.25 0.82,-131.38 440.04 80
7 03/10/2018 18:32:25 0.02,-135.22 0.21,-135.94 82.97 80
8 03/11/2018 18:14:25 0.02,-135.20 -0.91,-130.95 483.83 80
9 03/13/2018 06:30:46 -0.02,-135.15 -0.08,-135.55 44.75 80
10 03/15/2018 18:28:56 0.02,-135.09 0.04,-135.11 2.48 80




NCC Satellite Simultaneous Nadir Overpasses (SNOs) Prediction Service
